Overview Statistics Trail Chart Weather Telemetry Raw packets
 

This is the latest recevied weather packets stored in our database for station/object KA6UPU-1. If no packets are shown the sender has not sent any weather packets the latest 10 day(s).

<< 44 45 46 47 48 49 50 >>
Time Temp. Humidity Pressure Rain* Wind** Luminosity Snow
1788314166 18.33° C 65% 1015.1 hPa 0 mm - - -
1788313567 18.89° C 64% 1015.1 hPa 0 mm - - -
1788313037 18.89° C 63% 1015.1 hPa 0 mm - - -
1788312737 18.89° C 63% 1015.1 hPa 0 mm - - -
1788312437 18.89° C 62% 1015.1 hPa 0 mm - - -
1788311980 19.44° C 61% 1015.1 hPa 0 mm - - -
1788311680 19.44° C 62% 1015.1 hPa 0 mm - - -
1788311380 19.44° C 62% 1015 hPa 0 mm - - -
1788311080 20° C 60% 1015 hPa 0 mm - - -
1788310480 20° C 58% 1014.9 hPa 0 mm - - -
1788309880 20.56° C 57% 1014.8 hPa 0 mm - - -
1788309580 20.56° C 56% 1014.9 hPa 0 mm - - -
1788309280 20.56° C 55% 1014.9 hPa 0 mm - - -
1788308980 21.11° C 55% 1014.9 hPa 0 mm - - -
1788308645 21.11° C 54% 1014.8 hPa 0 mm - - -
1788308345 21.67° C 53% 1014.8 hPa 0 mm - - -
1788308045 21.67° C 51% 1014.9 hPa 0 mm - - -
1788307745 21.67° C 53% 1014.8 hPa 0 mm - - -
1788307145 21.67° C 53% 1014.8 hPa 0 mm - - -
1788306845 22.22° C 53% 1014.8 hPa 0 mm - - -
1788306545 22.22° C 52% 1014.9 hPa 0 mm - - -
1788306245 22.22° C 52% 1014.9 hPa 0 mm - - -
1788305945 22.22° C 52% 1014.9 hPa 0 mm - - -
1788305345 22.78° C 49% 1014.8 hPa 0 mm - - -
1788305045 22.22° C 48% 1014.9 hPa 0 mm - - -

* Rain latest hour (hover to see other rain measurements)
** Current wind speed in m/s (hover to see current wind gust speed)